VCP44R EGLL-EKCH

Flight info

Callsign VCP44R
Flight time 1h 31m
Altitude 37000
Route BPK Q295 PAAVO M604 GIVPO DCT VENAS DCT LARGA DCT SOPTO DCT DOREV DCT TESPI
Aircraft A320/M-SDE3FGHIRWY/LB1

Departure

Time 2026-04-22 17:54
Airport London Heathrow Airport (EGLL)

Arrival

Time 2026-04-22 19:26
Airport Copenhagen Kastrup Airport (EKCH)
Time Latitude Longitude Altitude Speed Heading
2026-04-22 17:29 51.47053 -0.47019 87 ft 0 kts 269°
2026-04-22 17:41 51.47053 -0.46991 89 ft 4 kts 265°
2026-04-22 17:41 51.47057 -0.46948 88 ft 4 kts 256°
2026-04-22 17:41 51.47066 -0.46908 87 ft 4 kts 242°
2026-04-22 17:41 51.47081 -0.46875 89 ft 4 kts 209°
2026-04-22 17:42 51.47093 -0.46867 88 ft 0 kts 179°
2026-04-22 17:43 51.47088 -0.46867 87 ft 3 kts 179°
2026-04-22 17:44 51.47047 -0.46866 90 ft 8 kts 179°
2026-04-22 17:44 51.46985 -0.46865 88 ft 10 kts 179°
2026-04-22 17:44 51.46904 -0.46865 89 ft 13 kts 181°
2026-04-22 17:44 51.46806 -0.46868 88 ft 14 kts 180°
2026-04-22 17:45 51.46747 -0.46973 90 ft 16 kts 268°
2026-04-22 17:45 51.46747 -0.47165 91 ft 18 kts 272°
2026-04-22 17:45 51.46747 -0.47382 91 ft 21 kts 268°
2026-04-22 17:45 51.46745 -0.47616 89 ft 21 kts 270°
2026-04-22 17:46 51.46745 -0.47849 87 ft 21 kts 270°
2026-04-22 17:46 51.46743 -0.48011 89 ft 0 kts 269°
2026-04-22 17:46 51.46743 -0.48025 87 ft 3 kts 269°
2026-04-22 17:46 51.46743 -0.48073 89 ft 5 kts 271°
2026-04-22 17:47 51.46743 -0.48100 87 ft 0 kts 270°
2026-04-22 17:47 51.46743 -0.48101 87 ft 1 kts 270°
2026-04-22 17:48 51.46743 -0.48119 89 ft 4 kts 270°
2026-04-22 17:48 51.46721 -0.48208 88 ft 9 kts 214°
2026-04-22 17:48 51.46650 -0.48217 89 ft 11 kts 179°
2026-04-22 17:48 51.46598 -0.48216 87 ft 0 kts 180°
2026-04-22 17:50 51.46578 -0.48215 87 ft 5 kts 180°
2026-04-22 17:51 51.46528 -0.48215 88 ft 9 kts 179°
2026-04-22 17:51 51.46479 -0.48145 89 ft 12 kts 98°
2026-04-22 17:51 51.46478 -0.48124 88 ft 0 kts 93°
2026-04-22 17:52 51.46478 -0.48122 88 ft 1 kts 93°
2026-04-22 17:52 51.46478 -0.48105 87 ft 0 kts 91°
2026-04-22 17:53 51.46478 -0.48102 87 ft 2 kts 91°
2026-04-22 17:53 51.46480 -0.47879 87 ft 53 kts 89°
2026-04-22 17:53 51.46482 -0.46925 88 ft 113 kts 89°
2026-04-22 17:53 51.46485 -0.45411 89 ft 156 kts 90°
2026-04-22 17:54 51.46489 -0.43644 622 ft 157 kts 89°
2026-04-22 17:54 51.46546 -0.41874 1221 ft 162 kts 79°
2026-04-22 17:54 51.47059 -0.40244 1887 ft 169 kts 53°
2026-04-22 17:54 51.47891 -0.38763 2218 ft 190 kts 53°
2026-04-22 17:55 51.48480 -0.37648 2427 ft 206 kts 54°
2026-04-22 17:55 51.49793 -0.35089 3086 ft 235 kts 55°
2026-04-22 17:55 51.50851 -0.33036 3943 ft 241 kts 54°
2026-04-22 17:55 51.51921 -0.30929 4852 ft 245 kts 59°
2026-04-22 17:56 51.52641 -0.28459 5642 ft 249 kts 74°
2026-04-22 17:56 51.53200 -0.25846 5923 ft 251 kts 75°
2026-04-22 17:56 51.53760 -0.23191 5998 ft 251 kts 75°
2026-04-22 17:56 51.54401 -0.20581 6012 ft 255 kts 62°
2026-04-22 17:57 51.55761 -0.18723 6020 ft 268 kts 27°
2026-04-22 17:57 51.57598 -0.17938 6298 ft 278 kts 17°
2026-04-22 17:57 51.59471 -0.17200 7246 ft 278 kts 19°
2026-04-22 17:57 51.61374 -0.16493 8127 ft 283 kts 18°
2026-04-22 17:58 51.63307 -0.15778 8949 ft 287 kts 18°
2026-04-22 17:58 51.65265 -0.15010 9736 ft 292 kts 19°
2026-04-22 17:58 51.67245 -0.14188 10534 ft 297 kts 19°
2026-04-22 17:58 51.69312 -0.13253 10852 ft 319 kts 22°
2026-04-22 17:59 51.71363 -0.11662 11060 ft 337 kts 36°
2026-04-22 17:59 51.73201 -0.09191 11344 ft 350 kts 50°
2026-04-22 17:59 51.74639 -0.06013 11947 ft 353 kts 63°
2026-04-22 17:59 51.75585 -0.02350 12615 ft 355 kts 76°
2026-04-22 18:00 51.75902 0.00238 13058 ft 356 kts 83°
2026-04-22 18:00 51.76351 0.05570 14007 ft 360 kts 84°
2026-04-22 18:00 51.76683 0.09581 14730 ft 362 kts 84°
2026-04-22 18:00 51.77012 0.13635 15414 ft 365 kts 84°
2026-04-22 18:01 51.77341 0.17730 16031 ft 369 kts 84°
2026-04-22 18:01 51.77670 0.21854 16622 ft 373 kts 84°
2026-04-22 18:01 51.77895 0.24671 17019 ft 375 kts 84°
2026-04-22 18:01 51.78230 0.28819 17594 ft 378 kts 84°
2026-04-22 18:02 51.78566 0.33049 18158 ft 381 kts 84°
2026-04-22 18:02 51.78902 0.37309 18717 ft 385 kts 84°
2026-04-22 18:02 51.79247 0.41622 19276 ft 389 kts 83°
2026-04-22 18:02 51.79601 0.46040 19834 ft 393 kts 83°
2026-04-22 18:03 51.79948 0.50383 20376 ft 397 kts 83°
2026-04-22 18:03 51.80299 0.54834 20928 ft 401 kts 83°
2026-04-22 18:03 51.80654 0.59334 21413 ft 406 kts 83°
2026-04-22 18:03 51.81080 0.63868 21930 ft 410 kts 77°
2026-04-22 18:04 51.81916 0.68286 22403 ft 413 kts 68°
2026-04-22 18:04 51.83033 0.72593 22883 ft 416 kts 66°
2026-04-22 18:04 51.84159 0.76927 23375 ft 420 kts 66°
2026-04-22 18:04 51.85334 0.81267 23838 ft 423 kts 62°
2026-04-22 18:05 51.86868 0.85331 24283 ft 425 kts 53°
2026-04-22 18:05 51.88806 0.88952 24787 ft 427 kts 44°
2026-04-22 18:05 51.91015 0.92181 25258 ft 429 kts 40°
2026-04-22 18:05 51.93246 0.95412 25730 ft 431 kts 40°
2026-04-22 18:06 51.95478 0.98665 26191 ft 433 kts 40°
2026-04-22 18:06 51.97721 1.01944 26640 ft 435 kts 40°
2026-04-22 18:06 51.99974 1.05242 27065 ft 437 kts 40°
2026-04-22 18:06 52.02241 1.08563 27461 ft 440 kts 41°
2026-04-22 18:07 52.04519 1.11900 27857 ft 442 kts 40°
2026-04-22 18:07 52.06938 1.14993 28309 ft 442 kts 35°
2026-04-22 18:07 52.09392 1.17972 28872 ft 439 kts 35°
2026-04-22 18:07 52.11831 1.20950 29411 ft 438 kts 36°
2026-04-22 18:08 52.14229 1.23997 29937 ft 436 kts 37°
2026-04-22 18:08 52.16570 1.27129 30465 ft 434 kts 38°
2026-04-22 18:08 52.18874 1.30311 30951 ft 434 kts 38°
2026-04-22 18:08 52.21131 1.33464 31417 ft 433 kts 38°
2026-04-22 18:09 52.23416 1.36649 31892 ft 432 kts 38°
2026-04-22 18:09 52.25703 1.39813 32350 ft 431 kts 38°
2026-04-22 18:09 52.27999 1.42964 32826 ft 430 kts 38°
2026-04-22 18:09 52.30290 1.46090 33294 ft 429 kts 38°
2026-04-22 18:10 52.32583 1.49213 33744 ft 428 kts 37°
2026-04-22 18:10 52.34764 1.52521 34217 ft 429 kts 43°
2026-04-22 18:10 52.36848 1.55997 34641 ft 428 kts 43°
2026-04-22 18:10 52.38926 1.59492 35062 ft 427 kts 43°
2026-04-22 18:11 52.40997 1.62989 35476 ft 427 kts 44°
2026-04-22 18:11 52.43067 1.66483 35839 ft 427 kts 44°
2026-04-22 18:11 52.45139 1.69977 36219 ft 427 kts 44°
2026-04-22 18:11 52.47210 1.73475 36569 ft 428 kts 44°
2026-04-22 18:12 52.49285 1.76981 36902 ft 428 kts 44°
2026-04-22 18:12 52.51353 1.80482 37293 ft 426 kts 44°
2026-04-22 18:12 52.53385 1.83928 37399 ft 426 kts 44°
2026-04-22 18:13 52.57558 1.91019 37421 ft 430 kts 44°
2026-04-22 18:13 52.61684 1.98052 37421 ft 430 kts 44°
2026-04-22 18:14 52.65839 2.05155 37422 ft 430 kts 44°
2026-04-22 18:14 52.69979 2.12246 37422 ft 429 kts 44°
2026-04-22 18:15 52.74107 2.19356 37423 ft 429 kts 44°
2026-04-22 18:15 52.78235 2.26473 37424 ft 429 kts 44°
2026-04-22 18:16 52.82363 2.33608 37426 ft 429 kts 45°
2026-04-22 18:16 52.86485 2.40764 37428 ft 429 kts 45°
2026-04-22 18:17 52.90599 2.47928 37429 ft 429 kts 45°
2026-04-22 18:17 52.94709 2.55108 37431 ft 429 kts 45°
2026-04-22 18:18 52.99005 2.61827 37432 ft 427 kts 34°
2026-04-22 18:18 53.04184 2.66562 37434 ft 425 kts 26°
2026-04-22 18:19 53.09479 2.70936 37430 ft 425 kts 26°
2026-04-22 18:19 53.14772 2.75341 37432 ft 425 kts 26°
2026-04-22 18:20 53.20067 2.79751 37433 ft 425 kts 26°
2026-04-22 18:20 53.25362 2.84185 37434 ft 426 kts 26°
2026-04-22 18:21 53.30676 2.88591 37433 ft 426 kts 25°
2026-04-22 18:21 53.36043 2.92638 37435 ft 426 kts 23°
2026-04-22 18:22 53.41479 2.96601 37442 ft 426 kts 24°
2026-04-22 18:22 53.46901 3.00632 37440 ft 425 kts 24°
2026-04-22 18:23 53.52300 3.04717 37441 ft 426 kts 24°
2026-04-22 18:23 53.57699 3.08825 37448 ft 426 kts 24°
2026-04-22 18:24 53.65797 3.15005 37459 ft 426 kts 24°
2026-04-22 18:25 53.73913 3.21191 37459 ft 426 kts 24°
2026-04-22 18:25 53.79312 3.25341 37460 ft 426 kts 25°
2026-04-22 18:26 53.87408 3.31577 37458 ft 426 kts 25°
2026-04-22 18:26 53.92810 3.35728 37455 ft 426 kts 25°
2026-04-22 18:27 53.98171 3.39879 37456 ft 426 kts 25°
2026-04-22 18:27 54.03560 3.44074 37464 ft 426 kts 25°
2026-04-22 18:28 54.08945 3.48269 37460 ft 426 kts 25°
2026-04-22 18:28 54.14331 3.52472 37447 ft 426 kts 26°
2026-04-22 18:29 54.19720 3.56694 37457 ft 426 kts 26°
2026-04-22 18:29 54.25114 3.60919 37461 ft 426 kts 26°
2026-04-22 18:30 54.33176 3.67373 37462 ft 426 kts 27°
2026-04-22 18:31 54.38438 3.72040 37463 ft 426 kts 29°
2026-04-22 18:31 54.43672 3.76824 37470 ft 426 kts 29°
2026-04-22 18:32 54.48928 3.81554 37468 ft 426 kts 28°
2026-04-22 18:32 54.54203 3.86266 37469 ft 426 kts 28°
2026-04-22 18:33 54.59464 3.90964 37473 ft 426 kts 29°
2026-04-22 18:33 54.64725 3.95693 37474 ft 426 kts 29°
2026-04-22 18:34 54.69978 4.00432 37475 ft 426 kts 29°
2026-04-22 18:34 54.75229 4.05192 37476 ft 426 kts 30°
2026-04-22 18:35 54.80464 4.09947 37478 ft 425 kts 30°
2026-04-22 18:35 54.85587 4.14888 37477 ft 422 kts 38°
2026-04-22 18:36 54.89827 4.21807 37476 ft 418 kts 49°
2026-04-22 18:36 54.93760 4.29282 37477 ft 418 kts 49°
2026-04-22 18:37 54.97694 4.36730 37477 ft 418 kts 49°
2026-04-22 18:37 55.00961 4.42926 37478 ft 418 kts 49°
2026-04-22 18:38 55.05545 4.51669 37481 ft 417 kts 50°
2026-04-22 18:38 55.09447 4.59149 37482 ft 417 kts 50°
2026-04-22 18:39 55.15298 4.70371 37481 ft 416 kts 50°
2026-04-22 18:39 55.19183 4.77865 37483 ft 415 kts 50°
2026-04-22 18:40 55.23052 4.85366 37484 ft 414 kts 50°
2026-04-22 18:40 55.26912 4.92870 37480 ft 414 kts 50°
2026-04-22 18:41 55.30131 5.01111 37478 ft 409 kts 67°
2026-04-22 18:41 55.31607 5.10612 37477 ft 407 kts 81°
2026-04-22 18:42 55.32563 5.20394 37476 ft 406 kts 80°
2026-04-22 18:42 55.33523 5.30179 37476 ft 406 kts 81°
2026-04-22 18:43 55.34466 5.39953 37478 ft 405 kts 81°
2026-04-22 18:43 55.35399 5.49720 37480 ft 405 kts 81°
2026-04-22 18:44 55.36161 5.59501 37480 ft 404 kts 85°
2026-04-22 18:44 55.36563 5.69343 37476 ft 402 kts 86°
2026-04-22 18:45 55.36908 5.79055 37483 ft 400 kts 86°
2026-04-22 18:45 55.37264 5.88772 37479 ft 398 kts 86°
2026-04-22 18:46 55.37615 5.98451 37481 ft 396 kts 86°
2026-04-22 18:46 55.37962 6.08108 37473 ft 395 kts 86°
2026-04-22 18:47 55.38303 6.17726 37473 ft 393 kts 86°
2026-04-22 18:47 55.38640 6.27316 37463 ft 392 kts 86°
2026-04-22 18:48 55.38908 6.35261 37460 ft 391 kts 86°
2026-04-22 18:48 55.39225 6.44813 37449 ft 392 kts 86°
2026-04-22 18:49 55.39540 6.54377 37446 ft 392 kts 86°
2026-04-22 18:49 55.39843 6.63948 37438 ft 392 kts 86°
2026-04-22 18:50 55.40141 6.73515 37435 ft 392 kts 86°
2026-04-22 18:50 55.40433 6.83102 37429 ft 392 kts 86°
2026-04-22 18:51 55.40713 6.92694 37425 ft 393 kts 86°
2026-04-22 18:51 55.40992 7.02301 37426 ft 393 kts 86°
2026-04-22 18:52 55.41268 7.11917 37424 ft 393 kts 86°
2026-04-22 18:52 55.41535 7.21510 37424 ft 392 kts 86°
2026-04-22 18:53 55.41789 7.31040 37425 ft 392 kts 86°
2026-04-22 18:53 55.42038 7.40639 37422 ft 392 kts 86°
2026-04-22 18:54 55.42284 7.50223 37424 ft 391 kts 86°
2026-04-22 18:54 55.42535 7.59795 37421 ft 390 kts 86°
2026-04-22 18:55 55.42780 7.69341 37417 ft 390 kts 86°
2026-04-22 18:55 55.43022 7.78860 37416 ft 389 kts 86°
2026-04-22 18:56 55.43258 7.88361 37414 ft 388 kts 86°
2026-04-22 18:56 55.43490 7.97850 37417 ft 388 kts 86°
2026-04-22 18:57 55.43716 8.07338 37418 ft 387 kts 87°
2026-04-22 18:57 55.43938 8.16818 37406 ft 387 kts 87°
2026-04-22 18:58 55.44149 8.26305 37403 ft 387 kts 86°
2026-04-22 18:58 55.44350 8.35703 37397 ft 387 kts 87°
2026-04-22 18:59 55.44550 8.45164 37396 ft 386 kts 87°
2026-04-22 18:59 55.44746 8.54626 37395 ft 386 kts 87°
2026-04-22 19:00 55.44941 8.64102 37392 ft 387 kts 87°
2026-04-22 19:00 55.45125 8.73579 37390 ft 387 kts 87°
2026-04-22 19:01 55.45301 8.83063 37389 ft 387 kts 87°
2026-04-22 19:01 55.45472 8.92555 37385 ft 388 kts 87°
2026-04-22 19:02 55.45632 9.02086 37383 ft 390 kts 87°
2026-04-22 19:02 55.45793 9.11645 37378 ft 390 kts 87°
2026-04-22 19:03 55.45945 9.21193 37378 ft 390 kts 87°
2026-04-22 19:03 55.46090 9.30749 37362 ft 389 kts 87°
2026-04-22 19:04 55.46222 9.40265 37360 ft 388 kts 87°
2026-04-22 19:04 55.46351 9.49780 37347 ft 388 kts 87°
2026-04-22 19:05 55.46417 9.54475 37133 ft 388 kts 87°
2026-04-22 19:05 55.46484 9.59239 36535 ft 389 kts 87°
2026-04-22 19:05 55.46548 9.63985 36010 ft 387 kts 87°
2026-04-22 19:05 55.46617 9.68728 35415 ft 386 kts 87°
2026-04-22 19:06 55.46687 9.73458 34760 ft 387 kts 87°
2026-04-22 19:06 55.46762 9.78197 34165 ft 385 kts 87°
2026-04-22 19:06 55.46764 9.82902 33603 ft 383 kts 93°
2026-04-22 19:07 55.45939 9.92182 32255 ft 382 kts 91°
2026-04-22 19:07 55.45904 9.96868 31434 ft 384 kts 89°
2026-04-22 19:07 55.45902 10.01603 30531 ft 388 kts 89°
2026-04-22 19:07 55.45899 10.06381 29551 ft 392 kts 89°
2026-04-22 19:08 55.45895 10.11211 28492 ft 397 kts 89°
2026-04-22 19:08 55.45892 10.16124 27351 ft 404 kts 89°
2026-04-22 19:08 55.45886 10.21102 26549 ft 411 kts 89°
2026-04-22 19:08 55.45879 10.26167 25689 ft 415 kts 89°
2026-04-22 19:09 55.45865 10.31255 24886 ft 415 kts 89°
2026-04-22 19:09 55.45849 10.36347 24077 ft 414 kts 89°
2026-04-22 19:09 55.45829 10.41412 23349 ft 414 kts 89°
2026-04-22 19:09 55.45805 10.46475 22649 ft 412 kts 89°
2026-04-22 19:10 55.45780 10.51518 21945 ft 411 kts 89°
2026-04-22 19:10 55.45754 10.56539 21243 ft 409 kts 89°
2026-04-22 19:10 55.45729 10.61538 20541 ft 407 kts 89°
2026-04-22 19:10 55.45701 10.66513 19996 ft 403 kts 89°
2026-04-22 19:11 55.45673 10.71464 19749 ft 406 kts 89°
2026-04-22 19:11 55.45641 10.76375 19504 ft 406 kts 89°
2026-04-22 19:11 55.45605 10.81363 19258 ft 406 kts 89°
2026-04-22 19:11 55.45566 10.86330 19002 ft 406 kts 89°
2026-04-22 19:12 55.45526 10.91297 18751 ft 405 kts 89°
2026-04-22 19:12 55.45484 10.96250 18500 ft 404 kts 89°
2026-04-22 19:12 55.45442 11.01203 18249 ft 404 kts 89°
2026-04-22 19:12 55.45402 11.06132 17818 ft 400 kts 89°
2026-04-22 19:13 55.45359 11.11003 17172 ft 395 kts 89°
2026-04-22 19:13 55.45312 11.15817 16552 ft 391 kts 89°
2026-04-22 19:13 55.45261 11.20582 15946 ft 387 kts 89°
2026-04-22 19:13 55.45210 11.25303 15346 ft 383 kts 89°
2026-04-22 19:14 55.45159 11.29962 14738 ft 378 kts 89°
2026-04-22 19:14 55.45108 11.34574 14117 ft 375 kts 88°
2026-04-22 19:14 55.45058 11.39142 13491 ft 371 kts 88°
2026-04-22 19:14 55.45005 11.43664 12850 ft 368 kts 88°
2026-04-22 19:15 55.44968 11.46638 12424 ft 366 kts 88°
2026-04-22 19:15 55.44891 11.52621 11548 ft 364 kts 88°
2026-04-22 19:15 55.44832 11.57026 11231 ft 352 kts 88°
2026-04-22 19:15 55.44772 11.61235 11105 ft 336 kts 88°
2026-04-22 19:16 55.44713 11.65265 10976 ft 323 kts 88°
2026-04-22 19:16 55.44655 11.69143 10853 ft 311 kts 88°
2026-04-22 19:16 55.44600 11.72898 10725 ft 302 kts 87°
2026-04-22 19:16 55.44548 11.76541 10543 ft 294 kts 87°
2026-04-22 19:17 55.44497 11.80075 10479 ft 293 kts 87°
2026-04-22 19:17 55.44445 11.83671 10391 ft 294 kts 87°
2026-04-22 19:17 55.44391 11.87286 10069 ft 294 kts 87°
2026-04-22 19:17 55.44335 11.90883 9654 ft 298 kts 87°
2026-04-22 19:18 55.44278 11.94529 9320 ft 296 kts 87°
2026-04-22 19:18 55.44219 11.98149 8949 ft 295 kts 87°
2026-04-22 19:18 55.44159 12.01770 8570 ft 295 kts 87°
2026-04-22 19:18 55.44100 12.05377 8227 ft 295 kts 87°
2026-04-22 19:19 55.44040 12.08979 7897 ft 293 kts 87°
2026-04-22 19:19 55.43978 12.12562 7560 ft 292 kts 87°
2026-04-22 19:19 55.43915 12.16121 7243 ft 290 kts 87°
2026-04-22 19:19 55.43856 12.19643 6990 ft 285 kts 87°
2026-04-22 19:20 55.43794 12.23114 6673 ft 280 kts 87°
2026-04-22 19:20 55.43729 12.26428 6541 ft 262 kts 87°
2026-04-22 19:20 55.43660 12.29558 6251 ft 252 kts 87°
2026-04-22 19:20 55.43600 12.32621 5814 ft 248 kts 84°
2026-04-22 19:21 55.43881 12.35557 5216 ft 242 kts 63°
2026-04-22 19:21 55.44757 12.38052 4521 ft 240 kts 41°
2026-04-22 19:21 55.45942 12.40003 4040 ft 234 kts 35°
2026-04-22 19:21 55.47168 12.41849 3535 ft 231 kts 36°
2026-04-22 19:22 55.48292 12.43829 2944 ft 224 kts 39°
2026-04-22 19:22 55.49358 12.45818 2311 ft 215 kts 44°
2026-04-22 19:22 55.50262 12.47763 1914 ft 196 kts 46°
2026-04-22 19:22 55.51075 12.49623 1501 ft 187 kts 43°
2026-04-22 19:23 55.51996 12.51126 1580 ft 177 kts 31°
2026-04-22 19:23 55.52993 12.52401 1848 ft 179 kts 32°
2026-04-22 19:23 55.54014 12.53660 1955 ft 180 kts 30°
2026-04-22 19:23 55.55015 12.55019 1859 ft 184 kts 34°
2026-04-22 19:24 55.55973 12.56515 1411 ft 183 kts 39°
2026-04-22 19:24 55.56832 12.58032 937 ft 167 kts 36°
2026-04-22 19:24 55.57676 12.59229 768 ft 145 kts 34°
2026-04-22 19:24 55.58426 12.60386 562 ft 140 kts 36°
2026-04-22 19:25 55.59149 12.61500 310 ft 136 kts 35°
2026-04-22 19:25 55.59854 12.62618 212 ft 136 kts 39°
2026-04-22 19:25 55.60577 12.63690 66 ft 137 kts 39°
2026-04-22 19:25 55.61204 12.64670 27 ft 99 kts 39°
2026-04-22 19:26 55.61478 12.65110 23 ft 31 kts 41°
2026-04-22 19:26 55.61635 12.65348 23 ft 30 kts 40°
2026-04-22 19:26 55.61791 12.65593 25 ft 30 kts 41°
2026-04-22 19:26 55.61941 12.65824 24 ft 29 kts 41°
2026-04-22 19:27 55.62097 12.66066 23 ft 29 kts 40°
2026-04-22 19:27 55.62258 12.66134 23 ft 22 kts 342°
2026-04-22 19:27 55.62305 12.66103 25 ft 0 kts 339°
2026-04-22 19:28 55.62307 12.66101 23 ft 1 kts 339°
2026-04-22 19:28 55.62315 12.66096 23 ft 0 kts 339°
2026-04-22 19:28 55.62324 12.66088 24 ft 3 kts 330°
2026-04-22 19:28 55.62325 12.66021 24 ft 8 kts 250°
2026-04-22 19:29 55.62303 12.65912 24 ft 11 kts 261°
2026-04-22 19:29 55.62299 12.65758 24 ft 14 kts 268°
2026-04-22 19:29 55.62297 12.65565 25 ft 17 kts 269°
2026-04-22 19:29 55.62294 12.65423 24 ft 5 kts 268°
2026-04-22 19:30 55.62294 12.65416 24 ft 2 kts 267°
2026-04-22 19:30 55.62298 12.65368 24 ft 5 kts 295°
2026-04-22 19:30 55.62341 12.65330 24 ft 9 kts 346°
2026-04-22 19:30 55.62415 12.65325 24 ft 9 kts 350°
2026-04-22 19:31 55.62477 12.65324 24 ft 11 kts
2026-04-22 19:31 55.62573 12.65322 24 ft 16 kts 358°
2026-04-22 19:31 55.62651 12.65277 26 ft 8 kts 297°
2026-04-22 19:31 55.62664 12.65205 24 ft 7 kts 311°
2026-04-22 19:32 55.62710 12.65184 24 ft 2 kts 354°
2026-04-22 19:32 55.62732 12.65180 24 ft 3 kts 354°
2026-04-22 19:32 55.62734 12.65179 24 ft 0 kts 354°